📊 Raw Sensor Data

Showing records 37001 to 37025 of 84,906 total

ID Distance (ft) Battery V Battery A Int Temp (°F) Int Humid (%) Ext Temp (°F) Solar V RSSI SNR Time Stamp
47918 15.3 3.94 -5 60 46 60 0.00 -68 7 08/01/2025 12:30 AM
47917 15.3 3.94 -5 60 46 61 0.00 -69 7 08/01/2025 12:15 AM
47916 15.3 3.94 -5 61 46 62 0.00 -68 7 08/01/2025 12:00 AM
47915 15.3 3.94 -5 62 46 63 0.00 -68 8 07/31/2025 11:45 PM
47914 15.3 3.94 -5 63 47 64 0.00 -68 8 07/31/2025 11:30 PM
47913 15.3 3.94 -5 64 47 65 0.00 -68 8 07/31/2025 11:15 PM
47912 15.3 3.86 -5 64 47 65 0.10 -68 8 07/31/2025 11:00 PM
47911 15.3 3.86 -5 65 47 66 0.00 -68 8 07/31/2025 10:45 PM
47910 15.3 3.84 -5 66 47 67 0.00 -68 8 07/31/2025 10:30 PM
47909 15.3 3.84 -5 66 48 67 0.10 -70 8 07/31/2025 10:15 PM
47908 15.3 3.94 -5 67 50 68 0.00 -68 8 07/31/2025 09:45 PM
47907 15.3 3.94 -5 68 51 69 0.00 -69 7 07/31/2025 09:30 PM
47906 15.3 3.85 -5 70 52 69 0.00 -68 8 07/31/2025 09:15 PM
47905 15.3 3.86 -5 71 54 70 0.00 -68 7 07/31/2025 09:00 PM
47904 15.3 3.94 -5 73 56 72 0.00 -70 8 07/31/2025 08:45 PM
47903 15.3 3.85 -5 76 58 73 0.80 -68 8 07/31/2025 08:30 PM
47902 15.4 3.87 -10 80 58 75 3.20 -69 8 07/31/2025 08:15 PM
47901 15.5 3.96 0 87 56 80 4.50 -68 8 07/31/2025 08:00 PM
47900 15.5 3.97 0 91 55 84 4.60 -71 8 07/31/2025 07:45 PM
47899 15.5 3.97 6 95 54 87 4.50 -68 8 07/31/2025 07:30 PM
47898 15.5 3.98 10 98 54 90 4.60 -69 7 07/31/2025 07:15 PM
47897 15.6 3.95 12 100 53 93 4.50 -69 8 07/31/2025 07:00 PM
47896 15.6 4.01 20 103 52 94 4.50 -69 8 07/31/2025 06:45 PM
47895 15.6 3.94 5 105 51 96 5.10 -69 8 07/31/2025 06:30 PM
47894 15.6 3.94 5 107 50 97 5.10 -69 8 07/31/2025 06:15 PM